Location: Peebles
(55.6412°N, 3.1714°W)
Time: 13:56:59
(UTC+01:00)

Cosmos 2369 Rocket - Pass Details

Date: 26 September 2021
Orbit: 830 x 851 km, 71.0° (Epoch: 17 October)

Event Time Altitude Azimuth Distance (km) Brightness Sun altitude
Rises 21:57:05 0° 238° (WSW) 3,394 5.6 -24.2°
Reaches altitude 10° 21:59:39 10° 245° (WSW) 2,459 4.9 -24.5°
Maximum altitude 22:05:02 44° 317° (NW) 1,158 3.3 -25.1°
Drops below altitude 10° 22:10:24 10° 29° (NNE) 2,458 4.7 -25.7°
Sets 22:12:59 0° 36° (NE) 3,392 5.4 -25.9°
